This is the latest recevied weather packets stored in our database for station/object N4JTC. If no packets are shown the sender has not sent any weather packets the latest 10 day(s).
| Time | Temp. | Humidity | Pressure | Rain* | Wind** | Luminosity | Snow |
|---|---|---|---|---|---|---|---|
| 1777866003 | 16.11° C | 76% | 1019.6 hPa | 0 mm | - | 0 W/m² | - |
| 1777865703 | 16.11° C | 76% | 1019.3 hPa | 0 mm | - | 0 W/m² | - |
| 1777865403 | 16.11° C | 76% | 1019.5 hPa | 0 mm | - | 0 W/m² | - |
| 1777865103 | 16.11° C | 76% | 1019.3 hPa | 0 mm | - | 0 W/m² | - |
| 1777864803 | 16.67° C | 76% | 1019.6 hPa | 0 mm | - | 0 W/m² | - |
| 1777864503 | 16.67° C | 75% | 1019.2 hPa | 0 mm | - | 0 W/m² | - |
| 1777864203 | 16.11° C | 75% | 1019.3 hPa | 0 mm | - | 0 W/m² | - |
| 1777863903 | 16.67° C | 74% | 1019.3 hPa | 0 mm | - | 0 W/m² | - |
| 1777863302 | 16.67° C | 75% | 1019.2 hPa | 0 mm | - | 0 W/m² | - |
| 1777863003 | 16.67° C | 75% | 1019.2 hPa | 0 mm | - | 0 W/m² | - |
| 1777862703 | 16.67° C | 73% | 1019.2 hPa | 0 mm | - | 0 W/m² | - |
| 1777862102 | 16.67° C | 72% | 1019.3 hPa | 0 mm | - | 0 W/m² | - |
| 1777861803 | 17.22° C | 72% | 1019.3 hPa | 0 mm | - | 0 W/m² | - |
| 1777861503 | 17.22° C | 72% | 1019.2 hPa | 0 mm | - | 0 W/m² | - |
| 1777861203 | 17.22° C | 72% | 1019.1 hPa | 0 mm | - | 0 W/m² | - |
| 1777860903 | 17.78° C | 71% | 1019 hPa | 0 mm | - | 0 W/m² | - |
| 1777860303 | 18.89° C | 68% | 1018.9 hPa | 0 mm | - | 0 W/m² | - |
| 1777860003 | 18.89° C | 67% | 1018.9 hPa | 0 mm | - | 0 W/m² | - |
| 1777859703 | 19.44° C | 66% | 1019 hPa | 0 mm | - | 0 W/m² | - |
| 1777859103 | 20° C | 63% | 1018.9 hPa | 0 mm | - | 0 W/m² | - |
| 1777858502 | 20° C | 63% | 1018.9 hPa | 0 mm | - | 0 W/m² | - |
| 1777857903 | 20.56° C | 62% | 1018.6 hPa | 0 mm | - | 0 W/m² | - |
| 1777857303 | 20.56° C | 61% | 1018.5 hPa | 0 mm | - | 0 W/m² | - |
| 1777857003 | 20.56° C | 60% | 1018.6 hPa | 0 mm | - | 0 W/m² | - |
| 1777856702 | 20.56° C | 60% | 1018.6 hPa | 0 mm | - | 0 W/m² | - |
* Rain latest hour (hover to see other rain measurements)
** Current wind speed in m/s (hover to see current wind gust speed)